Location: New York
(40.7127°N, 74.0060°W)
Time: 18:08:59
(UTC-04:00)

UNISAT 6 - Pass Details

Date: 26 April 2024
Orbit: 593 x 667 km, 97.7° (Epoch: 27 May)

Event Time Altitude Azimuth Distance (km) Brightness Sun altitude
Rises 04:18:46 0° 147° (SSE) 2,918 ? -17.8°
Reaches altitude 10° 04:21:05 10° 140° (SE) 2,002 ? -17.5°
Maximum altitude 04:25:07 39° 72° (ENE) 942 ? -16.9°
Drops below altitude 10° 04:29:06 10° 4° (N) 1,974 ? -16.3°
Sets 04:31:22 0° 356° (N) 2,872 ? -15.9°
